Weather History for KLVN - April, 2013

Change the Weather History Date:

Monday, April 8, 2013

  Actual Average Record
Temperature  
Mean Temperature 42 °F -  
Max Temperature 46 °F 52 °F 80 °F (1991)
Min Temperature 37 °F 31 °F 16 °F (1972)
Degree Days  
Heating Degree Days 24    
Moisture  
Dew Point 39 °F    
Average Humidity 94    
Maximum Humidity 100    
Minimum Humidity 81    
Precipitation  
Precipitation 0.00 in - - ()
Sea Level Pressure  
Sea Level Pressure 29.80 in    
Wind  
Wind Speed 7 mph (NE)    
Max Wind Speed 13 mph    
Max Gust Speed 21 mph    
Visibility 4 miles    
Events      
Averages and records for this station are not official NWS values.
T = Trace of Precipitation, MM = Missing Value Source: NWS Daily Summary

Daily Weather History Graph

Daily Weather History Graph

Search for Another Location

Airport or City:

Trip Planner

Search our weather history database for the weather conditions in past years. The results will help you decide how hot, cold, wet, or windy it might be!

Date:

Astronomy

Apr. 08, 2013 Rise Set
Actual Time 6:40 AM CDT 7:49 PM CDT
Civil Twilight 6:10 AM CDT 8:19 PM CDT
Nautical Twilight 5:34 AM CDT 8:55 PM CDT
Astronomical Twilight 4:57 AM CDT 9:33 PM CDT
Moon 5:34 AM CDT (4/8) 6:22 PM CDT (4/8)
Length of Visible Light 14h 08m
Length of Day
13h 08m
Waning Crescent, 3% of the Moon is Illuminated
Apr 8
Waning Crescent
Apr 10
New
Apr 18
First Quarter
Apr 25
Full
May 2
Last Quarter

Hourly Weather History & Observations

Time (CDT) Temp. Windchill Dew Point Humidity Pressure Visibility Wind Dir Wind Speed Gust Speed Precip Events Conditions
12:01 AM 39.2 °F 33.6 °F 39.2 °F 100% 29.75 in 4.0 mi SE 8.1 mph - N/A   Overcast
12:21 AM 39.2 °F 33.6 °F 39.2 °F 100% 29.75 in 3.0 mi SE 8.1 mph - N/A   Overcast
12:41 AM 39.2 °F 32.5 °F 39.2 °F 100% 29.73 in 4.0 mi ESE 10.4 mph - N/A   Overcast
1:01 AM 39.2 °F 33.0 °F 39.2 °F 100% 29.72 in 4.0 mi SE 9.2 mph - N/A   Overcast
1:21 AM 39.2 °F 33.0 °F 39.2 °F 100% 29.71 in 4.0 mi ESE 9.2 mph - N/A   Overcast
1:41 AM 39.2 °F 37.0 °F 39.2 °F 100% 29.70 in 4.0 mi ENE 3.5 mph - N/A   Overcast
2:01 AM 39.2 °F 37.0 °F 39.2 °F 100% 29.70 in 4.0 mi NE 3.5 mph - N/A   Overcast
2:21 AM 39.2 °F 37.0 °F 39.2 °F 100% 29.70 in 4.0 mi NE 3.5 mph - N/A   Overcast
2:41 AM 39.2 °F 37.0 °F 39.2 °F 100% 29.71 in 4.0 mi NNW 3.5 mph - N/A   Overcast
3:01 AM 39.2 °F 34.2 °F 39.2 °F 100% 29.71 in 4.0 mi North 6.9 mph - N/A   Overcast
3:21 AM 39.2 °F 33.6 °F 39.2 °F 100% 29.70 in 3.0 mi NNE 8.1 mph - N/A   Overcast
3:41 AM 39.2 °F 35.9 °F 39.2 °F 100% 29.70 in 2.5 mi ENE 4.6 mph - N/A   Overcast
4:01 AM 39.2 °F 37.0 °F 39.2 °F 100% 29.69 in 2.5 mi NE 3.5 mph - N/A   Overcast
4:21 AM 39.2 °F 35.0 °F 39.2 °F 100% 29.70 in 2.0 mi NNW 5.8 mph - N/A   Overcast
4:41 AM 39.2 °F 35.0 °F 39.2 °F 100% 29.69 in 2.5 mi NNE 5.8 mph - N/A   Overcast
5:01 AM 39.2 °F 35.0 °F 39.2 °F 100% 29.68 in 2.5 mi NE 5.8 mph - N/A   Overcast
5:21 AM 39.2 °F 34.2 °F 39.2 °F 100% 29.67 in 2.5 mi ENE 6.9 mph - N/A   Overcast
5:41 AM 39.2 °F 35.0 °F 37.4 °F 93% 29.67 in 2.0 mi ENE 5.8 mph - N/A   Overcast
6:01 AM 37.4 °F 32.1 °F 37.4 °F 100% 29.67 in 3.0 mi ENE 6.9 mph - N/A   Overcast
6:21 AM 37.4 °F 30.8 °F 37.4 °F 100% 29.68 in 4.0 mi ENE 9.2 mph - N/A   Overcast
6:41 AM 37.4 °F 31.4 °F 37.4 °F 100% 29.69 in 3.0 mi East 8.1 mph - N/A   Overcast
7:01 AM 37.4 °F 32.1 °F 37.4 °F 100% 29.70 in 3.0 mi East 6.9 mph - N/A   Overcast
7:21 AM 37.4 °F 32.1 °F 37.4 °F 100% 29.70 in 2.5 mi East 6.9 mph - N/A   Overcast
7:41 AM 37.4 °F - 37.4 °F 100% 29.71 in 2.5 mi ENE 2.3 mph - N/A   Overcast
8:01 AM 37.4 °F - 37.4 °F 100% 29.72 in 3.0 mi ENE 2.3 mph - N/A   Overcast
8:41 AM 37.4 °F 34.9 °F 37.4 °F 100% 29.72 in 3.0 mi NE 3.5 mph - N/A   Overcast
9:01 AM 37.4 °F 32.8 °F 37.4 °F 100% 29.73 in 3.0 mi NE 5.8 mph - N/A   Overcast
9:21 AM 37.4 °F 34.9 °F 37.4 °F 100% 29.73 in 3.0 mi NE 3.5 mph - N/A   Overcast
9:41 AM 39.2 °F 35.9 °F 37.4 °F 93% 29.73 in 3.0 mi NE 4.6 mph - N/A   Overcast
10:01 AM 39.2 °F 35.9 °F 37.4 °F 93% 29.74 in 3.0 mi NE 4.6 mph - N/A   Overcast
10:21 AM 39.2 °F 35.9 °F 39.2 °F 100% 29.74 in 4.0 mi NE 4.6 mph - N/A   Overcast
10:41 AM 39.2 °F 35.9 °F 39.2 °F 100% 29.75 in 4.0 mi NNE 4.6 mph - N/A   Overcast
11:01 AM 41.0 °F 39.0 °F 39.2 °F 93% 29.76 in 5.0 mi NE 3.5 mph - N/A   Overcast
11:21 AM 41.0 °F 38.0 °F 39.2 °F 93% 29.76 in 5.0 mi NNE 4.6 mph - N/A   Overcast
1:41 PM 46.4 °F 42.9 °F 41.0 °F 81% 29.79 in 5.0 mi NNE 6.9 mph - N/A   Overcast
2:01 PM 46.4 °F 44.3 °F 42.8 °F 87% 29.80 in 5.0 mi NNE 4.6 mph - N/A   Overcast
2:21 PM 46.4 °F 42.9 °F 41.0 °F 81% 29.80 in 5.0 mi North 6.9 mph - N/A   Overcast
2:41 PM 44.6 °F 41.4 °F 41.0 °F 87% 29.81 in 5.0 mi NNE 5.8 mph - N/A   Overcast
3:01 PM 44.6 °F 39.2 °F 41.0 °F 87% 29.79 in 5.0 mi NNE 10.4 mph - N/A   Mostly Cloudy
3:21 PM 46.4 °F 41.9 °F 41.0 °F 81% 29.81 in 5.0 mi NNE 9.2 mph - N/A   Mostly Cloudy
3:41 PM 46.4 °F 42.9 °F 41.0 °F 81% 29.81 in 5.0 mi NNE 6.9 mph - N/A   Overcast
4:01 PM 46.4 °F 42.4 °F 41.0 °F 81% 29.81 in 5.0 mi NE 8.1 mph - N/A   Overcast
4:21 PM 46.4 °F 42.4 °F 41.0 °F 81% 29.82 in 5.0 mi NNE 8.1 mph - N/A   Overcast
4:41 PM 44.6 °F 42.2 °F 41.0 °F 87% 29.85 in 5.0 mi NE 4.6 mph - N/A   Overcast
5:01 PM 44.6 °F 41.4 °F 41.0 °F 87% 29.86 in 5.0 mi NE 5.8 mph - N/A   Overcast
5:21 PM 44.6 °F 39.2 °F 41.0 °F 87% 29.86 in 5.0 mi NNE 10.4 mph - N/A   Overcast
5:41 PM 44.6 °F 38.8 °F 39.2 °F 81% 29.85 in 5.0 mi NNE 11.5 mph - N/A   Overcast
6:01 PM 44.6 °F 40.7 °F 39.2 °F 81% 29.89 in 5.0 mi North 6.9 mph - N/A   Overcast
6:21 PM 44.6 °F 40.2 °F 39.2 °F 81% 29.90 in 5.0 mi NNE 8.1 mph - N/A   Overcast
6:41 PM 44.6 °F 40.2 °F 39.2 °F 81% 29.92 in 5.0 mi North 8.1 mph - N/A   Overcast
7:01 PM 42.8 °F 38.6 °F 39.2 °F 87% 29.93 in 5.0 mi North 6.9 mph - N/A   Overcast
7:21 PM - - - N/A% 29.94 in 5.0 mi NNE 11.5 mph - N/A   Overcast
7:41 PM 42.8 °F 38.0 °F 39.2 °F 87% 29.95 in 7.0 mi NNE 8.1 mph - N/A   Overcast
8:01 PM 42.8 °F 36.6 °F 39.2 °F 87% 29.95 in 7.0 mi NNE 11.5 mph - N/A   Overcast
8:21 PM 42.8 °F 37.0 °F 39.2 °F 87% 29.96 in 7.0 mi NNE 10.4 mph 17.3 mph N/A   Overcast
8:41 PM 41.0 °F 33.9 °F 37.4 °F 87% 29.96 in 10.0 mi North 12.7 mph - N/A   Overcast
9:01 PM 39.2 °F 31.6 °F 37.4 °F 93% 29.97 in 7.0 mi NNE 12.7 mph 20.7 mph N/A   Overcast
9:21 PM 39.2 °F 31.6 °F 37.4 °F 93% 29.99 in 7.0 mi NNE 12.7 mph - N/A   Overcast
9:41 PM 39.2 °F 32.5 °F 37.4 °F 93% 30.00 in 7.0 mi NNE 10.4 mph - N/A   Overcast
10:01 PM 39.2 °F 33.0 °F 37.4 °F 93% 30.00 in 5.0 mi NE 9.2 mph - N/A   Overcast
10:21 PM 37.4 °F 31.4 °F 37.4 °F 100% 30.00 in 3.0 mi NE 8.1 mph - N/A   Overcast
10:41 PM 37.4 °F 32.1 °F 37.4 °F 100% 30.01 in 5.0 mi NE 6.9 mph - N/A   Overcast
11:01 PM 37.4 °F 29.8 °F 37.4 °F 100% 30.00 in 10.0 mi NE 11.5 mph - N/A   Overcast
11:21 PM 37.4 °F 30.8 °F 37.4 °F 100% 30.02 in 7.0 mi NNE 9.2 mph - N/A   Overcast
11:41 PM 37.4 °F 31.4 °F 37.4 °F 100% 30.02 in 4.0 mi NE 8.1 mph - N/A   Overcast